Time,TemperatureF,DewpointF,PressureIn,WindDirection,WindDirectionDegrees,WindSpeedMPH,WindSpeedGustMPH,Humidity,HourlyPrecipIn,Conditions,Clouds,dailyrainin,SoftwareType,DateUTC
2013-10-29 00:02:00,65.7,61.3,30.16,NNE,25,0.0,3.0,86,0.00,,,0.00,meteohub,2013-10-29 04:02:00,
2013-10-29 00:07:00,65.5,61.2,30.15,NNE,25,0.0,2.0,86,0.00,,,0.00,meteohub,2013-10-29 04:07:00,
2013-10-29 00:12:00,65.3,61.0,30.15,NNE,25,0.0,2.0,86,0.00,,,0.00,meteohub,2013-10-29 04:12:00,
2013-10-29 00:17:00,65.1,60.8,30.15,NNE,25,0.0,1.0,86,0.00,,,0.00,meteohub,2013-10-29 04:17:00,
2013-10-29 00:22:00,64.9,61.0,30.15,NNE,25,0.0,1.0,87,0.00,,,0.00,meteohub,2013-10-29 04:22:00,
2013-10-29 00:27:00,65.1,61.2,30.15,NNE,25,0.0,1.0,87,0.00,,,0.00,meteohub,2013-10-29 04:27:00,
2013-10-29 00:32:00,65.1,61.2,30.15,NNE,25,0.0,1.0,87,0.00,,,0.00,meteohub,2013-10-29 04:32:00,
2013-10-29 00:37:00,64.9,61.0,30.15,NNE,25,0.0,2.0,87,0.00,,,0.00,meteohub,2013-10-29 04:37:00,
2013-10-29 00:42:00,64.9,61.3,30.15,NNE,25,0.0,2.0,88,0.00,,,0.00,meteohub,2013-10-29 04:42:00,
2013-10-29 00:47:00,64.9,61.3,30.15,NNE,25,0.0,1.0,88,0.00,,,0.00,meteohub,2013-10-29 04:47:00,
2013-10-29 00:52:00,64.9,61.3,30.14,NNE,25,0.0,1.0,88,0.00,,,0.00,meteohub,2013-10-29 04:52:00,
2013-10-29 00:57:00,64.8,61.2,30.14,NNE,25,0.0,1.0,88,0.00,,,0.00,meteohub,2013-10-29 04:57:00,
2013-10-29 01:02:00,64.8,61.5,30.14,NNE,25,0.0,1.0,89,0.00,,,0.00,meteohub,2013-10-29 05:02:00,
2013-10-29 01:07:00,64.6,61.3,30.14,NNE,25,0.0,1.0,89,0.00,,,0.00,meteohub,2013-10-29 05:07:00,
2013-10-29 01:12:00,64.6,61.3,30.14,NNE,25,0.0,1.0,89,0.00,,,0.00,meteohub,2013-10-29 05:12:00,
2013-10-29 01:17:00,64.6,61.3,30.14,NNE,25,0.0,1.0,89,0.00,,,0.00,meteohub,2013-10-29 05:17:00,
2013-10-29 01:22:00,64.6,61.3,30.14,NNE,25,0.0,1.0,89,0.00,,,0.00,meteohub,2013-10-29 05:22:00,
2013-10-29 01:27:00,64.6,61.5,30.14,NNE,25,1.0,3.0,90,0.00,,,0.00,meteohub,2013-10-29 05:27:00,
2013-10-29 01:32:00,64.2,61.2,30.14,NNE,25,0.0,3.0,90,0.00,,,0.00,meteohub,2013-10-29 05:32:00,
2013-10-29 01:37:00,64.2,61.2,30.14,NNE,25,0.0,3.0,90,0.00,,,0.00,meteohub,2013-10-29 05:37:00,
2013-10-29 01:42:00,64.0,61.0,30.14,NNE,25,0.0,2.0,90,0.00,,,0.00,meteohub,2013-10-29 05:42:00,
2013-10-29 01:47:00,63.9,60.8,30.15,NNE,25,0.0,1.0,90,0.00,,,0.00,meteohub,2013-10-29 05:47:00,
2013-10-29 01:52:00,63.7,60.6,30.15,NNE,25,0.0,1.0,90,0.00,,,0.00,meteohub,2013-10-29 05:52:00,
2013-10-29 01:57:00,63.7,61.0,30.15,NNE,25,0.0,0.0,91,0.00,,,0.00,meteohub,2013-10-29 05:57:00,
2013-10-29 02:02:00,63.7,61.0,30.14,NNE,25,1.0,2.0,91,0.00,,,0.00,meteohub,2013-10-29 06:02:00,
2013-10-29 02:07:00,63.7,61.3,30.14,NNE,25,0.0,2.0,92,0.00,,,0.00,meteohub,2013-10-29 06:07:00,
2013-10-29 02:12:00,63.7,61.3,30.14,NNE,25,0.0,2.0,92,0.00,,,0.00,meteohub,2013-10-29 06:12:00,
2013-10-29 02:17:00,63.7,61.3,30.14,NNE,25,0.0,3.0,92,0.00,,,0.00,meteohub,2013-10-29 06:17:00,
2013-10-29 02:22:00,63.7,61.3,30.14,NNE,25,0.0,3.0,92,0.00,,,0.00,meteohub,2013-10-29 06:22:00,
2013-10-29 02:27:00,63.5,61.2,30.14,NNE,25,0.0,3.0,92,0.00,,,0.00,meteohub,2013-10-29 06:27:00,
2013-10-29 02:32:00,63.3,61.0,30.14,NNE,25,0.0,3.0,92,0.00,,,0.00,meteohub,2013-10-29 06:32:00,
2013-10-29 02:37:00,63.7,61.7,30.14,NNE,25,0.0,1.0,93,0.00,,,0.00,meteohub,2013-10-29 06:37:00,
2013-10-29 02:42:00,63.7,61.7,30.13,NNE,25,0.0,4.0,93,0.00,,,0.00,meteohub,2013-10-29 06:42:00,
2013-10-29 02:47:00,63.7,61.7,30.13,NNE,25,1.0,4.0,93,0.00,,,0.00,meteohub,2013-10-29 06:47:00,
2013-10-29 02:52:00,63.7,61.7,30.13,NNE,25,0.0,4.0,93,0.00,,,0.00,meteohub,2013-10-29 06:52:00,
2013-10-29 02:57:00,63.5,61.5,30.13,NNE,25,0.0,3.0,93,0.00,,,0.00,meteohub,2013-10-29 06:57:00,
2013-10-29 03:02:00,63.5,61.5,30.13,NNE,25,0.0,3.0,93,0.00,,,0.00,meteohub,2013-10-29 07:02:00,
2013-10-29 03:07:00,63.5,61.5,30.12,NNE,25,2.0,2.0,93,0.00,,,0.00,meteohub,2013-10-29 07:07:00,
2013-10-29 03:12:00,63.7,61.9,30.12,NNE,25,0.0,4.0,94,0.00,,,0.00,meteohub,2013-10-29 07:12:00,
2013-10-29 03:17:00,63.7,61.9,30.12,NNE,25,0.0,4.0,94,0.00,,,0.00,meteohub,2013-10-29 07:17:00,
2013-10-29 03:22:00,63.7,61.7,30.12,NNE,25,0.0,4.0,93,0.00,,,0.00,meteohub,2013-10-29 07:22:00,
2013-10-29 03:27:00,63.5,61.7,30.12,NNE,25,1.0,3.0,94,0.00,,,0.00,meteohub,2013-10-29 07:27:00,
2013-10-29 03:32:00,63.3,61.5,30.12,NNE,25,0.0,2.0,94,0.00,,,0.00,meteohub,2013-10-29 07:32:00,
2013-10-29 03:37:00,63.7,61.9,30.12,NNE,25,2.0,2.0,94,0.00,,,0.00,meteohub,2013-10-29 07:37:00,
2013-10-29 03:42:00,63.7,61.9,30.12,NNE,25,1.0,3.0,94,0.00,,,0.00,meteohub,2013-10-29 07:42:00,
2013-10-29 03:47:00,63.7,61.9,30.12,NNE,25,0.0,3.0,94,0.00,,,0.00,meteohub,2013-10-29 07:47:00,
2013-10-29 03:52:00,63.5,61.7,30.12,NNE,25,0.0,3.0,94,0.00,,,0.00,meteohub,2013-10-29 07:52:00,
2013-10-29 03:57:00,63.5,61.7,30.12,NNE,25,3.0,3.0,94,0.00,,,0.00,meteohub,2013-10-29 07:57:00,
2013-10-29 04:02:00,63.7,61.9,30.12,NNE,25,1.0,3.0,94,0.00,,,0.00,meteohub,2013-10-29 08:02:00,
2013-10-29 04:07:00,63.7,61.9,30.12,NNE,25,1.0,4.0,94,0.00,,,0.00,meteohub,2013-10-29 08:07:00,
2013-10-29 04:12:00,63.7,61.9,30.12,NNE,25,0.0,4.0,94,0.00,,,0.00,meteohub,2013-10-29 08:12:00,
2013-10-29 04:17:00,63.7,61.9,30.12,NNE,25,1.0,4.0,94,0.00,,,0.00,meteohub,2013-10-29 08:17:00,
2013-10-29 04:22:00,63.5,61.7,30.13,NNE,24,2.0,4.0,94,0.00,,,0.00,meteohub,2013-10-29 08:22:00,
2013-10-29 04:27:00,63.3,61.5,30.13,NNE,25,1.0,4.0,94,0.00,,,0.00,meteohub,2013-10-29 08:27:00,
2013-10-29 04:32:00,63.1,61.3,30.13,NNE,25,0.0,4.0,94,0.00,,,0.00,meteohub,2013-10-29 08:32:00,
2013-10-29 04:37:00,63.1,61.3,30.13,NNE,25,1.0,4.0,94,0.00,,,0.00,meteohub,2013-10-29 08:37:00,
2013-10-29 04:42:00,63.1,61.3,30.13,NNE,25,0.0,3.0,94,0.00,,,0.00,meteohub,2013-10-29 08:42:00,
2013-10-29 04:47:00,63.1,61.3,30.13,NNE,24,1.0,2.0,94,0.00,,,0.00,meteohub,2013-10-29 08:47:00,
2013-10-29 04:52:00,63.1,61.7,30.13,NNE,25,0.0,3.0,95,0.00,,,0.00,meteohub,2013-10-29 08:52:00,
2013-10-29 04:57:00,63.1,61.7,30.13,NNE,25,2.0,3.0,95,0.00,,,0.00,meteohub,2013-10-29 08:57:00,
2013-10-29 05:02:00,63.1,61.7,30.14,NNE,25,2.0,3.0,95,0.00,,,0.00,meteohub,2013-10-29 09:02:00,
2013-10-29 05:07:00,63.1,61.7,30.14,NNE,25,1.0,3.0,95,0.00,,,0.00,meteohub,2013-10-29 09:07:00,
2013-10-29 05:12:00,63.0,61.5,30.14,NNE,25,2.0,3.0,95,0.00,,,0.00,meteohub,2013-10-29 09:12:00,
2013-10-29 05:17:00,63.0,61.5,30.14,NNE,25,2.0,3.0,95,0.00,,,0.00,meteohub,2013-10-29 09:17:00,
2013-10-29 05:22:00,63.0,61.5,30.14,NNE,24,2.0,3.0,95,0.00,,,0.00,meteohub,2013-10-29 09:22:00,
2013-10-29 05:27:00,63.0,61.5,30.14,NNE,24,1.0,3.0,95,0.00,,,0.00,meteohub,2013-10-29 09:27:00,
2013-10-29 05:32:00,63.0,61.5,30.14,NNE,25,1.0,3.0,95,0.00,,,0.00,meteohub,2013-10-29 09:32:00,
2013-10-29 05:37:00,62.8,61.3,30.14,NNE,25,1.0,3.0,95,0.00,,,0.00,meteohub,2013-10-29 09:37:00,
2013-10-29 05:42:00,62.8,61.3,30.14,NNE,24,2.0,3.0,95,0.00,,,0.00,meteohub,2013-10-29 09:42:00,
2013-10-29 05:47:00,62.6,61.2,30.14,NNE,25,1.0,3.0,95,0.00,,,0.00,meteohub,2013-10-29 09:47:00,
2013-10-29 05:52:00,62.6,61.2,30.14,NNE,24,2.0,3.0,95,0.00,,,0.00,meteohub,2013-10-29 09:52:00,
2013-10-29 05:57:00,62.4,61.0,30.14,NNE,24,3.0,3.0,95,0.00,,,0.00,meteohub,2013-10-29 09:57:00,
2013-10-29 06:02:00,62.8,61.3,30.14,NNE,24,1.0,4.0,95,0.00,,,0.00,meteohub,2013-10-29 10:02:00,
2013-10-29 06:07:00,62.8,61.3,30.14,NNE,24,1.0,4.0,95,0.00,,,0.00,meteohub,2013-10-29 10:07:00,
2013-10-29 06:12:00,62.8,61.3,30.14,NNE,24,1.0,4.0,95,0.00,,,0.00,meteohub,2013-10-29 10:12:00,
2013-10-29 06:17:00,62.8,61.3,30.14,NNE,24,3.0,4.0,95,0.00,,,0.00,meteohub,2013-10-29 10:17:00,
2013-10-29 06:22:00,62.8,61.3,30.15,NNE,24,1.0,4.0,95,0.00,,,0.00,meteohub,2013-10-29 10:22:00,
2013-10-29 06:27:00,62.8,61.3,30.15,NNE,24,3.0,4.0,95,0.00,,,0.00,meteohub,2013-10-29 10:27:00,
2013-10-29 06:32:00,62.4,61.3,30.15,NNE,24,3.0,4.0,96,0.00,,,0.00,meteohub,2013-10-29 10:32:00,
2013-10-29 06:37:00,62.6,61.5,30.15,NNE,24,1.0,4.0,96,0.00,,,0.00,meteohub,2013-10-29 10:37:00,
2013-10-29 06:42:00,62.8,61.7,30.15,NNE,24,3.0,4.0,96,0.00,,,0.00,meteohub,2013-10-29 10:42:00,
2013-10-29 06:47:00,62.8,61.7,30.16,NNE,24,3.0,5.0,96,0.00,,,0.00,meteohub,2013-10-29 10:47:00,
2013-10-29 06:52:00,63.0,61.9,30.16,NNE,24,2.0,5.0,96,0.00,,,0.00,meteohub,2013-10-29 10:52:00,
2013-10-29 06:57:00,63.0,61.9,30.16,NNE,24,3.0,4.0,96,0.00,,,0.00,meteohub,2013-10-29 10:57:00,
2013-10-29 07:02:00,63.0,61.9,30.16,NNE,23,2.0,4.0,96,0.00,,,0.00,meteohub,2013-10-29 11:02:00,
2013-10-29 07:07:00,63.0,61.9,30.16,NNE,28,2.0,4.0,96,0.00,,,0.00,meteohub,2013-10-29 11:07:00,
2013-10-29 07:12:00,63.0,61.9,30.16,NNE,28,1.0,5.0,96,0.00,,,0.00,meteohub,2013-10-29 11:12:00,
2013-10-29 07:17:00,63.0,61.9,30.16,NNE,28,3.0,5.0,96,0.00,,,0.00,meteohub,2013-10-29 11:17:00,
2013-10-29 07:22:00,63.0,61.9,30.16,NNE,28,0.0,4.0,96,0.00,,,0.00,meteohub,2013-10-29 11:22:00,
2013-10-29 07:27:00,63.0,61.9,30.16,NNE,28,2.0,4.0,96,0.00,,,0.00,meteohub,2013-10-29 11:27:00,
2013-10-29 07:32:00,63.0,61.9,30.16,NNE,28,1.0,4.0,96,0.00,,,0.00,meteohub,2013-10-29 11:32:00,
2013-10-29 07:37:00,63.0,61.9,30.16,NNE,28,0.0,4.0,96,0.00,,,0.00,meteohub,2013-10-29 11:37:00,
2013-10-29 07:42:00,63.1,62.1,30.16,NNE,28,2.0,4.0,96,0.00,,,0.00,meteohub,2013-10-29 11:42:00,
2013-10-29 07:47:00,63.1,62.1,30.16,NNE,28,1.0,5.0,96,0.00,,,0.00,meteohub,2013-10-29 11:47:00,
2013-10-29 07:52:00,63.1,62.1,30.17,NNE,28,2.0,5.0,96,0.00,,,0.00,meteohub,2013-10-29 11:52:00,
2013-10-29 07:57:00,63.1,62.1,30.17,NNE,28,2.0,5.0,96,0.00,,,0.00,meteohub,2013-10-29 11:57:00,
2013-10-29 08:02:00,63.3,62.2,30.17,NNE,28,1.0,4.0,96,0.00,,,0.00,meteohub,2013-10-29 12:02:00,
2013-10-29 08:07:00,63.5,62.4,30.17,NNE,22,1.0,4.0,96,0.00,,,0.00,meteohub,2013-10-29 12:07:00,
2013-10-29 08:12:00,63.7,62.6,30.17,NNE,22,2.0,5.0,96,0.00,,,0.00,meteohub,2013-10-29 12:12:00,
2013-10-29 08:17:00,63.9,62.8,30.17,NE,36,2.0,5.0,96,0.00,,,0.00,meteohub,2013-10-29 12:17:00,
2013-10-29 08:22:00,64.0,63.0,30.17,NE,35,0.0,6.0,96,0.00,,,0.00,meteohub,2013-10-29 12:22:00,
2013-10-29 08:27:00,64.2,63.1,30.17,NE,39,6.0,6.0,96,0.00,,,0.00,meteohub,2013-10-29 12:27:00,
2013-10-29 08:32:00,64.6,63.5,30.17,NE,34,5.0,8.0,96,0.00,,,0.00,meteohub,2013-10-29 12:32:00,
2013-10-29 08:37:00,64.9,63.5,30.17,ENE,73,4.0,8.0,95,0.00,,,0.00,meteohub,2013-10-29 12:37:00,
2013-10-29 08:42:00,65.1,63.7,30.17,NNE,27,5.0,9.0,95,0.00,,,0.00,meteohub,2013-10-29 12:42:00,
2013-10-29 08:47:00,65.5,64.0,30.17,NE,42,0.0,9.0,95,0.00,,,0.00,meteohub,2013-10-29 12:47:00,
2013-10-29 08:52:00,65.8,64.0,30.18,NNE,29,2.0,9.0,94,0.00,,,0.00,meteohub,2013-10-29 12:52:00,
2013-10-29 08:57:00,66.0,64.2,30.18,NE,40,1.0,8.0,94,0.00,,,0.00,meteohub,2013-10-29 12:57:00,
2013-10-29 09:02:00,66.6,64.4,30.18,NNE,33,8.0,8.0,93,0.00,,,0.00,meteohub,2013-10-29 13:02:00,
2013-10-29 09:07:00,66.9,64.8,30.18,NE,38,1.0,11.0,93,0.00,,,0.00,meteohub,2013-10-29 13:07:00,
2013-10-29 09:12:00,67.3,64.9,30.18,NE,42,3.0,11.0,92,0.00,,,0.00,meteohub,2013-10-29 13:12:00,
2013-10-29 09:17:00,67.6,64.9,30.18,NNE,27,6.0,11.0,91,0.00,,,0.00,meteohub,2013-10-29 13:17:00,
2013-10-29 09:22:00,68.0,65.3,30.18,NE,34,5.0,8.0,91,0.00,,,0.00,meteohub,2013-10-29 13:22:00,
2013-10-29 09:27:00,68.4,65.3,30.18,NE,41,4.0,10.0,90,0.00,,,0.00,meteohub,2013-10-29 13:27:00,
2013-10-29 09:32:00,68.7,65.3,30.19,NE,46,12.0,12.0,89,0.00,,,0.00,meteohub,2013-10-29 13:32:00,
2013-10-29 09:37:00,69.1,65.7,30.19,North,351,5.0,12.0,89,0.00,,,0.00,meteohub,2013-10-29 13:37:00,
2013-10-29 09:42:00,69.6,65.8,30.19,NE,42,6.0,12.0,88,0.00,,,0.00,meteohub,2013-10-29 13:42:00,
2013-10-29 09:47:00,70.0,66.0,30.19,NE,54,2.0,12.0,87,0.00,,,0.00,meteohub,2013-10-29 13:47:00,
2013-10-29 09:52:00,70.3,66.2,30.19,NE,36,4.0,11.0,87,0.00,,,0.00,meteohub,2013-10-29 13:52:00,
2013-10-29 09:57:00,70.9,66.6,30.19,NE,38,4.0,11.0,86,0.00,,,0.00,meteohub,2013-10-29 13:57:00,
2013-10-29 10:02:00,71.2,66.6,30.19,NE,37,2.0,10.0,85,0.00,,,0.00,meteohub,2013-10-29 14:02:00,
2013-10-29 10:07:00,71.8,67.1,30.19,NE,34,6.0,8.0,85,0.00,,,0.00,meteohub,2013-10-29 14:07:00,
2013-10-29 10:12:00,72.3,67.3,30.19,NE,40,3.0,9.0,84,0.00,,,0.00,meteohub,2013-10-29 14:12:00,
2013-10-29 10:17:00,72.7,66.6,30.19,East,81,6.0,13.0,81,0.00,,,0.00,meteohub,2013-10-29 14:17:00,
2013-10-29 10:22:00,72.7,66.6,30.20,NE,44,7.0,13.0,81,0.00,,,0.00,meteohub,2013-10-29 14:22:00,
2013-10-29 10:27:00,73.0,66.9,30.20,NE,34,6.0,13.0,81,0.00,,,0.00,meteohub,2013-10-29 14:27:00,
2013-10-29 10:32:00,73.4,66.9,30.20,NNE,28,5.0,13.0,80,0.00,,,0.00,meteohub,2013-10-29 14:32:00,
2013-10-29 10:37:00,73.8,66.9,30.20,ENE,70,0.0,13.0,79,0.00,,,0.00,meteohub,2013-10-29 14:37:00,
2013-10-29 10:42:00,74.1,66.7,30.20,NNE,25,10.0,10.0,78,0.00,,,0.00,meteohub,2013-10-29 14:42:00,
2013-10-29 10:47:00,74.5,67.1,30.20,NE,53,6.0,12.0,78,0.00,,,0.00,meteohub,2013-10-29 14:47:00,
2013-10-29 10:52:00,74.8,66.7,30.19,NE,35,8.0,12.0,76,0.00,,,0.00,meteohub,2013-10-29 14:52:00,
2013-10-29 10:57:00,74.8,66.7,30.19,NE,53,5.0,12.0,76,0.00,,,0.00,meteohub,2013-10-29 14:57:00,
2013-10-29 11:02:00,75.4,67.3,30.19,NE,40,6.0,11.0,76,0.00,,,0.00,meteohub,2013-10-29 15:02:00,
2013-10-29 11:07:00,75.6,66.7,30.19,NNE,30,8.0,11.0,74,0.00,,,0.00,meteohub,2013-10-29 15:07:00,
2013-10-29 11:12:00,75.7,66.9,30.19,East,85,3.0,12.0,74,0.00,,,0.00,meteohub,2013-10-29 15:12:00,
2013-10-29 11:17:00,75.9,67.1,30.19,NE,40,4.0,12.0,74,0.00,,,0.00,meteohub,2013-10-29 15:17:00,
2013-10-29 11:22:00,76.3,67.5,30.19,East,100,7.0,12.0,74,0.00,,,0.00,meteohub,2013-10-29 15:22:00,
2013-10-29 11:27:00,76.5,67.6,30.19,East,81,6.0,14.0,74,0.00,,,0.00,meteohub,2013-10-29 15:27:00,
2013-10-29 11:32:00,76.6,66.9,30.19,ENE,67,4.0,14.0,72,0.00,,,0.00,meteohub,2013-10-29 15:32:00,
2013-10-29 11:37:00,77.0,67.6,30.19,ENE,57,2.0,14.0,73,0.00,,,0.00,meteohub,2013-10-29 15:37:00,
2013-10-29 11:42:00,77.7,68.0,30.19,East,96,6.0,12.0,72,0.00,,,0.00,meteohub,2013-10-29 15:42:00,
2013-10-29 11:47:00,78.3,67.6,30.19,ENE,61,4.0,11.0,70,0.00,,,0.00,meteohub,2013-10-29 15:47:00,
2013-10-29 11:52:00,78.3,67.3,30.19,NE,56,4.0,13.0,69,0.00,,,0.00,meteohub,2013-10-29 15:52:00,
2013-10-29 11:57:00,78.4,67.5,30.18,NE,55,2.0,13.0,69,0.00,,,0.00,meteohub,2013-10-29 15:57:00,
2013-10-29 12:02:00,78.6,67.1,30.18,ENE,65,1.0,11.0,68,0.00,,,0.00,meteohub,2013-10-29 16:02:00,
2013-10-29 12:07:00,78.8,66.6,30.18,NE,45,6.0,13.0,66,0.00,,,0.00,meteohub,2013-10-29 16:07:00,
2013-10-29 12:12:00,79.0,67.1,30.18,ENE,67,5.0,14.0,67,0.00,,,0.00,meteohub,2013-10-29 16:12:00,
2013-10-29 12:17:00,78.6,66.4,30.18,East,94,5.0,14.0,66,0.00,,,0.00,meteohub,2013-10-29 16:17:00,
2013-10-29 12:22:00,79.0,66.6,30.18,ESE,105,1.0,14.0,66,0.00,,,0.00,meteohub,2013-10-29 16:22:00,
2013-10-29 12:27:00,79.2,66.4,30.18,East,94,6.0,15.0,65,0.00,,,0.00,meteohub,2013-10-29 16:27:00,
2013-10-29 12:32:00,79.3,66.6,30.18,East,101,9.0,15.0,65,0.00,,,0.00,meteohub,2013-10-29 16:32:00,
2013-10-29 12:37:00,79.5,64.9,30.17,East,88,6.0,15.0,61,0.00,,,0.00,meteohub,2013-10-29 16:37:00,
2013-10-29 12:42:00,79.5,65.8,30.17,SSE,150,6.0,14.0,63,0.00,,,0.00,meteohub,2013-10-29 16:42:00,
2013-10-29 12:47:00,79.9,66.6,30.17,East,98,6.0,13.0,64,0.00,,,0.00,meteohub,2013-10-29 16:47:00,
2013-10-29 12:52:00,80.2,66.0,30.17,East,88,3.0,13.0,62,0.00,,,0.00,meteohub,2013-10-29 16:52:00,
2013-10-29 12:57:00,80.4,66.2,30.17,East,88,6.0,13.0,62,0.00,,,0.00,meteohub,2013-10-29 16:57:00,
2013-10-29 13:02:00,81.0,66.2,30.16,ENE,78,5.0,13.0,61,0.00,,,0.00,meteohub,2013-10-29 17:02:00,
2013-10-29 13:07:00,81.0,65.8,30.16,ENE,69,7.0,13.0,60,0.00,,,0.00,meteohub,2013-10-29 17:07:00,
2013-10-29 13:12:00,81.3,66.0,30.16,NE,34,2.0,13.0,60,0.00,,,0.00,meteohub,2013-10-29 17:12:00,
2013-10-29 13:17:00,81.3,65.1,30.16,ENE,67,4.0,10.0,58,0.00,,,0.00,meteohub,2013-10-29 17:17:00,
2013-10-29 13:22:00,81.5,65.8,30.15,NE,55,4.0,11.0,59,0.00,,,0.00,meteohub,2013-10-29 17:22:00,
2013-10-29 13:27:00,81.9,66.2,30.15,East,80,11.0,12.0,59,0.00,,,0.00,meteohub,2013-10-29 17:27:00,
2013-10-29 13:32:00,81.1,64.9,30.15,ENE,63,7.0,12.0,58,0.00,,,0.00,meteohub,2013-10-29 17:32:00,
2013-10-29 13:37:00,81.3,64.6,30.14,East,90,8.0,12.0,57,0.00,,,0.00,meteohub,2013-10-29 17:37:00,
2013-10-29 13:42:00,81.3,65.7,30.14,NNE,32,8.0,11.0,59,0.00,,,0.00,meteohub,2013-10-29 17:42:00,
2013-10-29 13:47:00,81.5,65.8,30.14,East,86,5.0,15.0,59,0.00,,,0.00,meteohub,2013-10-29 17:47:00,
2013-10-29 13:52:00,81.7,63.9,30.14,NE,51,4.0,15.0,55,0.00,,,0.00,meteohub,2013-10-29 17:52:00,
2013-10-29 13:57:00,81.7,63.9,30.13,East,90,3.0,15.0,55,0.00,,,0.00,meteohub,2013-10-29 17:57:00,
2013-10-29 14:02:00,81.9,64.0,30.13,ENE,61,1.0,13.0,55,0.00,,,0.00,meteohub,2013-10-29 18:02:00,
2013-10-29 14:07:00,82.8,64.9,30.12,SE,134,3.0,13.0,55,0.00,,,0.00,meteohub,2013-10-29 18:07:00,
2013-10-29 14:12:00,82.4,63.5,30.12,ENE,61,4.0,11.0,53,0.00,,,0.00,meteohub,2013-10-29 18:12:00,
2013-10-29 14:17:00,82.0,63.7,30.12,ENE,57,3.0,12.0,54,0.00,,,0.00,meteohub,2013-10-29 18:17:00,
2013-10-29 14:22:00,82.4,64.6,30.12,NE,52,3.0,12.0,55,0.00,,,0.00,meteohub,2013-10-29 18:22:00,
2013-10-29 14:27:00,83.1,63.7,30.12,ESE,104,1.0,10.0,52,0.00,,,0.00,meteohub,2013-10-29 18:27:00,
2013-10-29 14:32:00,83.1,64.2,30.12,East,86,3.0,10.0,53,0.00,,,0.00,meteohub,2013-10-29 18:32:00,
2013-10-29 14:37:00,82.6,63.7,30.12,ENE,67,5.0,12.0,53,0.00,,,0.00,meteohub,2013-10-29 18:37:00,
2013-10-29 14:42:00,82.6,64.2,30.11,NE,46,8.0,12.0,54,0.00,,,0.00,meteohub,2013-10-29 18:42:00,
2013-10-29 14:47:00,82.9,64.0,30.11,East,92,10.0,12.0,53,0.00,,,0.00,meteohub,2013-10-29 18:47:00,
2013-10-29 14:52:00,82.8,64.4,30.11,NNE,25,4.0,11.0,54,0.00,,,0.00,meteohub,2013-10-29 18:52:00,
2013-10-29 14:57:00,83.1,64.2,30.11,NE,44,6.0,11.0,53,0.00,,,0.00,meteohub,2013-10-29 18:57:00,
2013-10-29 15:02:00,83.5,63.0,30.11,NE,36,8.0,13.0,50,0.00,,,0.00,meteohub,2013-10-29 19:02:00,
2013-10-29 15:07:00,83.5,63.5,30.10,NE,36,5.0,13.0,51,0.00,,,0.00,meteohub,2013-10-29 19:07:00,
2013-10-29 15:12:00,83.5,64.0,30.10,North,355,5.0,13.0,52,0.00,,,0.00,meteohub,2013-10-29 19:12:00,
2013-10-29 15:17:00,83.5,64.0,30.10,NE,44,6.0,11.0,52,0.00,,,0.00,meteohub,2013-10-29 19:17:00,
2013-10-29 15:22:00,83.5,64.0,30.10,NNE,15,11.0,11.0,52,0.00,,,0.00,meteohub,2013-10-29 19:22:00,
2013-10-29 15:27:00,83.5,63.5,30.10,NE,53,3.0,11.0,51,0.00,,,0.00,meteohub,2013-10-29 19:27:00,
2013-10-29 15:32:00,83.7,64.2,30.10,ENE,59,4.0,11.0,52,0.00,,,0.00,meteohub,2013-10-29 19:32:00,
2013-10-29 15:37:00,83.7,63.0,30.10,NE,40,5.0,11.0,50,0.00,,,0.00,meteohub,2013-10-29 19:37:00,
2013-10-29 15:42:00,83.5,62.2,30.10,ENE,65,5.0,11.0,49,0.00,,,0.00,meteohub,2013-10-29 19:42:00,
2013-10-29 15:47:00,83.3,62.8,30.10,ENE,58,5.0,12.0,50,0.00,,,0.00,meteohub,2013-10-29 19:47:00,
2013-10-29 15:52:00,82.9,62.4,30.10,East,90,9.0,12.0,50,0.00,,,0.00,meteohub,2013-10-29 19:52:00,
2013-10-29 15:57:00,82.9,61.9,30.10,ENE,62,0.0,10.0,49,0.00,,,0.00,meteohub,2013-10-29 19:57:00,
2013-10-29 16:02:00,83.1,63.1,30.10,NNE,20,4.0,10.0,51,0.00,,,0.00,meteohub,2013-10-29 20:02:00,
2013-10-29 16:07:00,83.3,63.3,30.10,ENE,69,5.0,10.0,51,0.00,,,0.00,meteohub,2013-10-29 20:07:00,
2013-10-29 16:12:00,83.5,63.0,30.10,NE,49,4.0,12.0,50,0.00,,,0.00,meteohub,2013-10-29 20:12:00,
2013-10-29 16:17:00,83.7,61.9,30.10,NE,56,3.0,12.0,48,0.00,,,0.00,meteohub,2013-10-29 20:17:00,
2013-10-29 16:22:00,83.7,63.7,30.10,ENE,66,4.0,12.0,51,0.00,,,0.00,meteohub,2013-10-29 20:22:00,
2013-10-29 16:27:00,83.7,64.2,30.09,NE,36,2.0,10.0,52,0.00,,,0.00,meteohub,2013-10-29 20:27:00,
2013-10-29 16:32:00,83.8,64.4,30.09,NE,39,6.0,9.0,52,0.00,,,0.00,meteohub,2013-10-29 20:32:00,
2013-10-29 16:37:00,83.7,63.7,30.09,NE,36,3.0,10.0,51,0.00,,,0.00,meteohub,2013-10-29 20:37:00,
2013-10-29 16:42:00,83.5,63.5,30.09,NE,38,5.0,11.0,51,0.00,,,0.00,meteohub,2013-10-29 20:42:00,
2013-10-29 16:47:00,83.1,63.1,30.09,NNE,20,6.0,11.0,51,0.00,,,0.00,meteohub,2013-10-29 20:47:00,
2013-10-29 16:52:00,83.1,63.1,30.09,NNE,18,7.0,11.0,51,0.00,,,0.00,meteohub,2013-10-29 20:52:00,
2013-10-29 16:57:00,83.3,63.3,30.09,NE,42,8.0,11.0,51,0.00,,,0.00,meteohub,2013-10-29 20:57:00,
2013-10-29 17:02:00,83.3,63.9,30.09,NE,38,5.0,12.0,52,0.00,,,0.00,meteohub,2013-10-29 21:02:00,
2013-10-29 17:07:00,83.1,63.7,30.09,ENE,78,7.0,12.0,52,0.00,,,0.00,meteohub,2013-10-29 21:07:00,
2013-10-29 17:12:00,82.6,63.7,30.09,NNE,28,5.0,12.0,53,0.00,,,0.00,meteohub,2013-10-29 21:12:00,
2013-10-29 17:17:00,82.2,63.9,30.10,NNE,26,4.0,11.0,54,0.00,,,0.00,meteohub,2013-10-29 21:17:00,
2013-10-29 17:22:00,82.6,63.7,30.10,ENE,73,4.0,10.0,53,0.00,,,0.00,meteohub,2013-10-29 21:22:00,
2013-10-29 17:27:00,82.4,64.0,30.10,NE,49,9.0,12.0,54,0.00,,,0.00,meteohub,2013-10-29 21:27:00,
2013-10-29 17:32:00,82.6,64.2,30.09,ENE,57,5.0,12.0,54,0.00,,,0.00,meteohub,2013-10-29 21:32:00,
2013-10-29 17:37:00,82.6,64.2,30.10,NNE,19,4.0,12.0,54,0.00,,,0.00,meteohub,2013-10-29 21:37:00,
2013-10-29 17:42:00,82.6,64.2,30.10,NE,44,6.0,10.0,54,0.00,,,0.00,meteohub,2013-10-29 21:42:00,
2013-10-29 17:47:00,82.4,64.0,30.10,NE,40,3.0,10.0,54,0.00,,,0.00,meteohub,2013-10-29 21:47:00,
2013-10-29 17:52:00,82.2,63.3,30.10,NNE,31,8.0,11.0,53,0.00,,,0.00,meteohub,2013-10-29 21:52:00,
2013-10-29 17:57:00,82.2,63.9,30.11,NNE,26,3.0,11.0,54,0.00,,,0.00,meteohub,2013-10-29 21:57:00,
2013-10-29 18:02:00,82.4,65.1,30.10,NE,37,4.0,11.0,56,0.00,,,0.00,meteohub,2013-10-29 22:02:00,
2013-10-29 18:07:00,82.2,64.4,30.10,NNE,27,5.0,10.0,55,0.00,,,0.00,meteohub,2013-10-29 22:07:00,
2013-10-29 18:12:00,81.9,65.1,30.11,NE,44,3.0,9.0,57,0.00,,,0.00,meteohub,2013-10-29 22:12:00,
2013-10-29 18:17:00,81.7,64.9,30.11,NE,46,3.0,10.0,57,0.00,,,0.00,meteohub,2013-10-29 22:17:00,
2013-10-29 18:22:00,81.3,65.1,30.11,NE,49,4.0,10.0,58,0.00,,,0.00,meteohub,2013-10-29 22:22:00,
2013-10-29 18:27:00,81.1,66.0,30.11,NNE,26,4.0,10.0,60,0.00,,,0.00,meteohub,2013-10-29 22:27:00,
2013-10-29 18:32:00,81.0,65.8,30.11,NE,38,2.0,8.0,60,0.00,,,0.00,meteohub,2013-10-29 22:32:00,
2013-10-29 18:37:00,80.8,66.0,30.11,NE,38,1.0,7.0,61,0.00,,,0.00,meteohub,2013-10-29 22:37:00,
2013-10-29 18:42:00,80.4,65.7,30.12,NE,38,0.0,7.0,61,0.00,,,0.00,meteohub,2013-10-29 22:42:00,
2013-10-29 18:47:00,80.1,65.5,30.12,ENE,63,0.0,4.0,61,0.00,,,0.00,meteohub,2013-10-29 22:47:00,
2013-10-29 18:52:00,79.7,65.5,30.12,ENE,68,3.0,4.0,62,0.00,,,0.00,meteohub,2013-10-29 22:52:00,
2013-10-29 18:57:00,79.5,65.3,30.12,NE,38,4.0,10.0,62,0.00,,,0.00,meteohub,2013-10-29 22:57:00,
2013-10-29 19:02:00,79.3,65.1,30.12,NE,53,0.0,10.0,62,0.00,,,0.00,meteohub,2013-10-29 23:02:00,
2013-10-29 19:07:00,79.3,65.7,30.12,East,86,2.0,10.0,63,0.00,,,0.00,meteohub,2013-10-29 23:07:00,
2013-10-29 19:12:00,79.3,65.7,30.12,NE,44,4.0,10.0,63,0.00,,,0.00,meteohub,2013-10-29 23:12:00,
2013-10-29 19:17:00,79.2,65.8,30.12,NE,43,5.0,10.0,64,0.00,,,0.00,meteohub,2013-10-29 23:17:00,
2013-10-29 19:22:00,79.0,65.8,30.13,NE,51,3.0,9.0,64,0.00,,,0.00,meteohub,2013-10-29 23:22:00,
2013-10-29 19:27:00,78.8,65.7,30.13,NE,46,0.0,8.0,64,0.00,,,0.00,meteohub,2013-10-29 23:27:00,
2013-10-29 19:32:00,78.6,65.8,30.13,ENE,58,4.0,7.0,65,0.00,,,0.00,meteohub,2013-10-29 23:32:00,
2013-10-29 19:37:00,78.4,65.7,30.13,NNE,32,1.0,10.0,65,0.00,,,0.00,meteohub,2013-10-29 23:37:00,
2013-10-29 19:42:00,78.3,65.5,30.13,NE,40,6.0,10.0,65,0.00,,,0.00,meteohub,2013-10-29 23:42:00,
2013-10-29 19:47:00,78.1,65.3,30.13,NE,39,4.0,11.0,65,0.00,,,0.00,meteohub,2013-10-29 23:47:00,
2013-10-29 19:52:00,77.9,65.7,30.13,NE,35,8.0,11.0,66,0.00,,,0.00,meteohub,2013-10-29 23:52:00,
2013-10-29 19:57:00,77.7,65.5,30.13,East,84,3.0,10.0,66,0.00,,,0.00,meteohub,2013-10-29 23:57:00,
2013-10-29 20:02:00,77.4,65.5,30.13,NE,44,3.0,10.0,67,0.00,,,0.00,meteohub,2013-10-30 00:02:00,
2013-10-29 20:07:00,77.2,65.3,30.14,NE,47,2.0,10.0,67,0.00,,,0.00,meteohub,2013-10-30 00:07:00,
2013-10-29 20:12:00,77.0,65.1,30.14,East,79,5.0,10.0,67,0.00,,,0.00,meteohub,2013-10-30 00:12:00,
2013-10-29 20:17:00,76.8,64.9,30.14,ENE,57,3.0,9.0,67,0.00,,,0.00,meteohub,2013-10-30 00:17:00,
2013-10-29 20:22:00,76.6,64.9,30.14,NE,51,5.0,10.0,67,0.00,,,0.00,meteohub,2013-10-30 00:22:00,
2013-10-29 20:27:00,76.6,64.9,30.14,NE,44,4.0,10.0,67,0.00,,,0.00,meteohub,2013-10-30 00:27:00,
2013-10-29 20:32:00,76.5,65.1,30.14,NNE,25,1.0,12.0,68,0.00,,,0.00,meteohub,2013-10-30 00:32:00,
2013-10-29 20:37:00,76.3,65.3,30.14,NE,35,3.0,12.0,69,0.00,,,0.00,meteohub,2013-10-30 00:37:00,
2013-10-29 20:42:00,75.9,64.9,30.15,NE,46,7.0,9.0,69,0.00,,,0.00,meteohub,2013-10-30 00:42:00,
2013-10-29 20:47:00,75.7,64.8,30.15,NE,54,7.0,12.0,69,0.00,,,0.00,meteohub,2013-10-30 00:47:00,
2013-10-29 20:52:00,75.6,64.8,30.15,NE,44,5.0,12.0,69,0.00,,,0.00,meteohub,2013-10-30 00:52:00,
2013-10-29 20:57:00,75.4,64.6,30.15,NE,46,3.0,9.0,69,0.00,,,0.00,meteohub,2013-10-30 00:57:00,
2013-10-29 21:02:00,75.2,64.8,30.15,ENE,64,3.0,9.0,70,0.00,,,0.00,meteohub,2013-10-30 01:02:00,
2013-10-29 21:07:00,75.0,64.6,30.16,NE,36,5.0,9.0,70,0.00,,,0.00,meteohub,2013-10-30 01:07:00,
2013-10-29 21:12:00,74.8,64.4,30.16,NE,37,7.0,9.0,70,0.00,,,0.00,meteohub,2013-10-30 01:12:00,
2013-10-29 21:17:00,74.8,64.4,30.16,NE,53,1.0,9.0,70,0.00,,,0.00,meteohub,2013-10-30 01:17:00,
2013-10-29 21:22:00,74.7,64.2,30.17,NE,38,4.0,9.0,70,0.00,,,0.00,meteohub,2013-10-30 01:22:00,
2013-10-29 21:27:00,74.5,64.4,30.17,NE,39,3.0,9.0,71,0.00,,,0.00,meteohub,2013-10-30 01:27:00,
2013-10-29 21:32:00,74.3,64.2,30.17,NE,49,1.0,9.0,71,0.00,,,0.00,meteohub,2013-10-30 01:32:00,
2013-10-29 21:37:00,74.1,64.0,30.17,NNE,31,5.0,9.0,71,0.00,,,0.00,meteohub,2013-10-30 01:37:00,
2013-10-29 21:42:00,73.9,63.9,30.17,NE,47,6.0,9.0,71,0.00,,,0.00,meteohub,2013-10-30 01:42:00,
2013-10-29 21:47:00,73.9,64.4,30.17,NE,53,2.0,9.0,72,0.00,,,0.00,meteohub,2013-10-30 01:47:00,
2013-10-29 21:52:00,73.8,64.2,30.17,ENE,60,2.0,10.0,72,0.00,,,0.00,meteohub,2013-10-30 01:52:00,
2013-10-29 21:57:00,73.8,64.6,30.17,NE,54,2.0,10.0,73,0.00,,,0.00,meteohub,2013-10-30 01:57:00,
2013-10-29 22:02:00,73.6,64.4,30.17,NNE,30,3.0,10.0,73,0.00,,,0.00,meteohub,2013-10-30 02:02:00,
2013-10-29 22:07:00,73.4,64.6,30.18,NE,41,3.0,9.0,74,0.00,,,0.00,meteohub,2013-10-30 02:07:00,
2013-10-29 22:12:00,73.2,64.4,30.18,East,90,3.0,9.0,74,0.00,,,0.00,meteohub,2013-10-30 02:12:00,
2013-10-29 22:17:00,73.0,64.2,30.18,ENE,58,3.0,8.0,74,0.00,,,0.00,meteohub,2013-10-30 02:17:00,
2013-10-29 22:22:00,73.0,64.6,30.18,NE,40,5.0,7.0,75,0.00,,,0.00,meteohub,2013-10-30 02:22:00,
2013-10-29 22:27:00,72.9,64.4,30.18,NE,34,5.0,8.0,75,0.00,,,0.00,meteohub,2013-10-30 02:27:00,
2013-10-29 22:32:00,72.7,64.8,30.18,ENE,59,5.0,8.0,76,0.00,,,0.00,meteohub,2013-10-30 02:32:00,
2013-10-29 22:37:00,72.7,65.1,30.18,NE,37,7.0,8.0,77,0.00,,,0.00,meteohub,2013-10-30 02:37:00,
2013-10-29 22:42:00,72.3,64.8,30.18,NE,40,4.0,8.0,77,0.00,,,0.00,meteohub,2013-10-30 02:42:00,
2013-10-29 22:47:00,72.1,64.9,30.18,NNE,26,5.0,9.0,78,0.00,,,0.00,meteohub,2013-10-30 02:47:00,
2013-10-29 22:52:00,72.1,65.3,30.18,NNE,15,8.0,10.0,79,0.00,,,0.00,meteohub,2013-10-30 02:52:00,
2013-10-29 22:57:00,72.0,65.5,30.18,NNE,16,3.0,10.0,80,0.00,,,0.00,meteohub,2013-10-30 02:57:00,
2013-10-29 23:02:00,72.0,65.5,30.18,NE,47,3.0,10.0,80,0.00,,,0.00,meteohub,2013-10-30 03:02:00,
2013-10-29 23:07:00,71.8,65.7,30.18,NE,44,3.0,9.0,81,0.00,,,0.00,meteohub,2013-10-30 03:07:00,
2013-10-29 23:12:00,71.8,65.7,30.18,NE,47,4.0,8.0,81,0.00,,,0.00,meteohub,2013-10-30 03:12:00,
2013-10-29 23:17:00,71.6,65.8,30.18,NE,52,1.0,9.0,82,0.00,,,0.00,meteohub,2013-10-30 03:17:00,
2013-10-29 23:22:00,71.4,65.7,30.18,NNE,33,7.0,9.0,82,0.00,,,0.00,meteohub,2013-10-30 03:22:00,
2013-10-29 23:27:00,71.4,66.0,30.18,NE,47,4.0,9.0,83,0.00,,,0.00,meteohub,2013-10-30 03:27:00,
2013-10-29 23:32:00,71.2,65.8,30.18,NE,38,6.0,9.0,83,0.00,,,0.00,meteohub,2013-10-30 03:32:00,
2013-10-29 23:37:00,71.2,65.8,30.18,NE,42,4.0,9.0,83,0.00,,,0.00,meteohub,2013-10-30 03:37:00,
2013-10-29 23:42:00,71.1,65.7,30.18,NE,37,0.0,9.0,83,0.00,,,0.00,meteohub,2013-10-30 03:42:00,
2013-10-29 23:47:00,71.1,66.0,30.18,NE,36,2.0,8.0,84,0.00,,,0.00,meteohub,2013-10-30 03:47:00,
2013-10-29 23:52:00,70.9,65.8,30.18,NNE,23,6.0,8.0,84,0.00,,,0.00,meteohub,2013-10-30 03:52:00,
2013-10-29 23:57:00,70.5,65.5,30.18,NNE,14,3.0,7.0,84,0.00,,,0.00,meteohub,2013-10-30 03:57:00,